This is the latest recevied weather packets stored in our database for station/object OK1PMP-6. If no packets are shown the sender has not sent any weather packets the latest 10 day(s).
| Time | Temp. | Humidity | Pressure | Rain* | Wind** | Luminosity | Snow |
|---|---|---|---|---|---|---|---|
| 1778287769 | 8.33° C | 90% | 1023.3 hPa | 0 mm | - | 0 W/m² | - |
| 1778285834 | 8.33° C | 90% | 1023.3 hPa | 0 mm | - | 0 W/m² | - |
| 1778284281 | 7.78° C | 90% | 1023.5 hPa | 0 mm | - | 0 W/m² | - |
| 1778282562 | 8.33° C | 91% | 1023.4 hPa | 0 mm | - | 0 W/m² | - |
| 1778282384 | 8.33° C | 89% | 1023.6 hPa | 0 mm | - | 0 W/m² | - |
| 1778281952 | 8.33° C | 89% | 1023.6 hPa | 0 mm | - | 0 W/m² | - |
| 1778279902 | 8.33° C | 90% | 1023.4 hPa | 0 mm | - | 0 W/m² | - |
| 1778277929 | 8.33° C | 88% | 1023.4 hPa | 0 mm | - | 0 W/m² | - |
| 1778276801 | 8.33° C | 89% | 1023.4 hPa | 0 mm | - | 0 W/m² | - |
| 1778275901 | 8.33° C | 90% | 1023.2 hPa | 0 mm | - | 0 W/m² | - |
| 1778274972 | 8.33° C | 89% | 1023.2 hPa | 0 mm | - | 0 W/m² | - |
| 1778274073 | 8.33° C | 89% | 1023.2 hPa | 0 mm | - | 0 W/m² | - |
| 1778273173 | 8.89° C | 88% | 1023.3 hPa | 0 mm | - | 0 W/m² | - |
| 1778272272 | 8.89° C | 86% | 1022.9 hPa | 0 mm | - | 0 W/m² | - |
| 1778271372 | 9.44° C | 85% | 1023.1 hPa | 0 mm | - | 0 W/m² | - |
| 1778270472 | 9.44° C | 85% | 1023.2 hPa | 0 mm | - | 0 W/m² | - |
| 1778269587 | 10° C | 85% | 1022.7 hPa | 0 mm | - | 0 W/m² | - |
| 1778268675 | 10° C | 85% | 1022.7 hPa | 0 mm | - | 0 W/m² | - |
| 1778267772 | 10° C | 84% | 1022.5 hPa | 0 mm | - | 0 W/m² | - |
| 1778266987 | 10.56° C | 83% | 1022.4 hPa | 0 mm | - | 0 W/m² | - |
| 1778265970 | 11.11° C | 82% | 1022 hPa | 0 mm | - | 0 W/m² | - |
| 1778265069 | 11.11° C | 81% | 1021.9 hPa | 0 mm | - | 0 W/m² | - |
| 1778264184 | 11.11° C | 77% | 1021.6 hPa | 0 mm | - | 6 W/m² | - |
| 1778263270 | 12.22° C | 74% | 1021.6 hPa | 0 mm | - | 13 W/m² | - |
| 1778262565 | 13.33° C | 71% | 1021.6 hPa | 0 mm | - | 20 W/m² | - |
* Rain latest hour (hover to see other rain measurements)
** Current wind speed in m/s (hover to see current wind gust speed)